www.pogodaiklimat.ru

Погода и климат >> Архив погоды >> Россия >> Чукотка >> Майская


ПОГОДА в Майской

  • Прогноз погоды в Майской
  • Монитор погоды в Майской

АРХИВ ПОГОДЫ в Майской

Время (UTC), дата Ветер
(напр.,м/с)
 
Видим.   Явления Облачность Т
(С)
Тd
(С)
f
(%)
Тe
(С)
Тes
(С)
Комфортность P
(гПа)
Po
(гПа)
Тmin
(С)
Tmax
(С)
R
(мм)
R24
(мм)
S
(см)
21 14.04 ЮВ 3 н/о н/о -8.9 -14.8 62 -15 -15 1017.2 972.2
00 15.04 ЮВ 3 н/о н/о -7.4 -13.3 63 -13 -13 1017.2 972.5
03 15.04 ЮВ 3 н/о н/о -6.1 -13.2 57 -11 -11 1016.8 972.3
06 15.04 В 6 н/о н/о -8.6 -13.8 66 -17 -17 1017.3 972.4
09 15.04 ЮВ 7 н/о н/о -10.2 -14.8 69 -19 -19 1018.1 972.9
12 15.04 ЮВ 9
{10}
н/о н/о -10.3 -15.0 68 -20 -20 1018.0 972.8
15 15.04 В 10-11
{11}
н/о н/о -12.4 -16.1 74 -24 -24 1017.6 972.0
18 15.04 ЮВ 11-12
{13}
н/о н/о -10.9 -15.2 71 -22 -22 1016.7 971.4
21 15.04 ЮВ 13-14
{15}
н/о н/о -12.0 -15.8 73 -24 -24 1016.5 971.0
00 16.04 ЮВ 13-14
{15}
н/о н/о -9.8 -14.3 70 -22 -22 1014.9 969.9
03 16.04 ЮВ 11-13
{14}
н/о н/о -8.8 -13.8 67 -20 -20 1013.8 969.0
06 16.04 ЮВ 11-13
{14}
н/о н/о -8.8 -14.0 66 -20 -20 1012.6 967.8
09 16.04 ЮВ 5
{14}
н/о н/о -10.3 -15.1 68 -18 -18 1013.0 968.0
12 16.04 штиль 0
{10}
н/о н/о -12.6 -16.5 73 -13 -13 1013.2 967.8
15 16.04 ЮВ 4 н/о н/о -10.4 -17.8 55 -17 -17 1012.3 967.3
18 16.04 В 4 н/о н/о -9.7 -18.1 50 -16 -16 1012.5 967.6
21 16.04 штиль 0 н/о н/о -8.6 -16.9 51 -9 -9 1013.0 968.2
03 17.04 З 2 н/о н/о -7.2 -13.8 59 -11 -11 1014.9 970.3
06 17.04 штиль 0 н/о н/о -9.1 -14.5 65 -9 -9 1017.4 972.3
09 17.04 штиль 0 н/о н/о -13.2 -16.0 79 -13 -13 1020.4 974.6
12 17.04 штиль 0 н/о н/о -13.0 -15.6 81 -13 -13 1022.0 976.1
15 17.04 штиль 0 н/о н/о -15.3 -17.0 87 -15 -15 1023.9 977.5
18 17.04 СВ 2 н/о н/о -19.7 -22.1 81 -25 -25 1025.8 978.5
21 17.04 В 2 н/о н/о -15.5 -17.5 85 -21 -21 1025.4 978.9
00 18.04 ЮВ 9 н/о н/о -12.7 -15.2 82 -23 -23 1024.0 978.1
03 18.04 ЮВ 11-12
{12}
н/о н/о -11.0 -14.7 74 -22 -22 1022.6 977.1
06 18.04 ЮВ 11-12
{12}
н/о н/о -11.3 -16.0 68 -23 -23 1021.6 976.0
09 18.04 ЮВ 9-10
{12}
н/о н/о -12.9 -17.4 69 -24 -24 1020.9 975.1
12 18.04 ЮВ 10-13
{14}
н/о н/о -9.5 -16.3 58 -20 -20 1018.7 973.6
15 18.04 ЮВ 12-13
{14}
н/о н/о -10.0 -17.0 57 -21 -21 1016.8 971.6
21 18.04 ЮВ 12-14
{16}
н/о н/о -9.5 -15.4 62 -21 -21 1013.4 968.5
00 19.04 Ю 9-11
{14}
н/о н/о -8.2 -12.8 69 -18 -18 1012.5 967.8
03 19.04 Ю 4
{11}
н/о н/о -6.9 -12.3 65 -13 -13 1012.0 967.6
06 19.04 штиль 0 н/о н/о -6.7 -8.7 86 -8 -8 1012.0 967.6
09 19.04 штиль 0 н/о н/о -7.3 -8.5 91 -8 -8 1012.9 968.4
15 19.04 С 8-10
{10}
н/о н/о -11.8 -13.4 88 -22 -22 1016.3 970.9
18 19.04 С 6
{11}
н/о н/о -13.3 -15.1 86 -22 -22 1018.2 972.4
21 19.04 З 5 н/о н/о -13.1 -15.3 83 -21 -21 1019.2 973.4
00 20.04 З 7
{10}
н/о н/о -13.4 -15.5 84 -23 -23 1019.4 973.5
03 20.04 З 7 н/о н/о -13.4 -15.5 84 -23 -23 1019.4 973.5
06 20.04 З 5
{10}
н/о н/о -14.4 -16.4 85 -23 -23 1018.9 972.9
09 20.04 З 4 н/о н/о -14.8 -16.7 85 -23 -23 1019.1 973.0
12 20.04 З 7
{10}
н/о н/о -15.4 -17.3 85 -26 -26 1018.6 972.4
15 20.04 ЮЗ 4 н/о н/о -17.7 -19.9 83 -26 -26 1019.0 972.5
18 20.04 З 3 н/о н/о -17.8 -20.0 83 -25 -25 1019.4 972.8

 

Местоположение метеостанции Майская (Чукотка, Россия): широта 68.57 долгота 173.48 высота над уровнем моря 351 м.

В архиве по умолчанию представлена погода в Майской за последнюю неделю. Архивные данные за месяц целиком и за предыдущие месяцы, начиная с января 2011 года, Вы можете получить, выбрав интересующий диапазон дат из раскрывающегося списка и нажав кнопку "Ввод!".


*Определитесь, кто Вы:
робот инопланетянин человек

Внимание! Время в таблицах - всемирное. Для получения местного времени необходимо прибавить поправку, которая равна 12 ч.

Смотрите также архив погоды в соседних городах и на ближайших метеорологических станциях:

Погода в Паляваам-Глубокой (Чукотка, Россия) (66 км)
Погода в Комсомольской (Чукотка, Россия) (68 км)
Погода в Чауне (Чукотка, Россия) (117 км)
Погода на 21 км (Чукотка, Россия) (158 км)
Погода на Мысе Биллингс (Чукотка, Россия) (170 км)
Погода в Певеке (Чукотка, Россия) (181 км)
Погода в Валькаркае (Чукотка, Россия) (196 км)
Погода в Эньмувееме (Чукотка, Россия) (244 км)
Погода на Айон Острове (Чукотка, Россия) (267 км)
Погода в Илирнее (Чукотка, Россия) (276 км)

Пояснения к столбцам:

Ветер - указаны скорость ветра в м/с - средняя за 10 мин, порывы в срок и между сроками (в фигурных скобках) и направление, откуда дует ветер: С - северный, СВ - северо-восточный, В - восточный, ЮВ - юго-восточный, Ю - южный, ЮЗ - юго-западный, З - западный, СЗ - северо-западный.
Видимость - горизонтальная дальность видимости в метрах или километрах. При видимости от 1 до 10 км при отсутствии осадков обычно наблюдается дымка, при ухудшении видимости до 1 км и менее - туман. В сухую погоду видимость может ухудшаться дымом, пылью или мглою.
Явления - указаны атмосферные явления, наблюдавшиеся в срок или в последний час перед сроком; фигурными скобками обозначены явления, наблюдавшиеся между сроками (за 1-3 часа до срока); квадратными скобками обозначены град или гололедные отложения с указанием их диаметра в мм.
Облачность - указаны через наклонную черту общая и нижняя облачность в баллах и высота нижней границы облаков в метрах; квадратными скобками обозначены формы облаков: Ci - перистые, Cs - перисто-слоистые, Cc - перисто-кучевые, Ac - высококучевые, As - высокослоистые, Sc - слоисто-кучевые, Ns - слоисто-дождевые, Cu - кучевые, Cb - кучево-дождевые. Подробнее классификацию облаков см. в Атласе облаков (PDF).
T - Температура воздуха - температура, измеренная на высоте 2 м над землей.
Td - Температура точки росы - температура, при понижении до которой содержащийся в воздухе водяной пар достигнет насыщения.
f - Относительная влажность воздуха - влажноcть воздуха, измеренная на высоте 2 м над землей.
Te - Эффективная температура - температура, которую ощущает одетый по сезону человек в тени. Характеристика душности погоды. При расчете учитывается влияние влажности воздуха и скорости ветра на теплоощущения человека.
Tes - Эффективная температура на солнце - температура, которую ощущает человек, с поправкой на солнечный нагрев. Характеристика знойности погоды. Зависит от высоты солнца над горизонтом, облачности и скорости ветра. Ночью, в пасмурную погоду, а также при ветре 12 м/с и более поправка равна нулю.
P - Атмосферное давление - приведенное к уровню моря атмосферное давление.
Po - Атмосферное давление - измеренное на уровне метеостанции атмосферное давление.
Tmin - Минимальная температура - минимум температуры воздуха на высоте 2 м над землей.
Tmax - Максимальная температура - максимум температуры воздуха на высоте 2 м над землей.
R - Количество осадков - Количество выпавших осадков за период времени, мм. При наведении курсора мыши на число - период времени, за который выпало указанное количество осадков.
R24 - Количество осадков - Количество выпавших осадков за 24 часа, мм.
S - Снежный покров - Высота снежного покрова, см. При наведении курсора мыши на число - состояние снежного покрова и степень покрытия местности в баллах.